Regional Weather Roundup
Issued by NWS

Home | Current Version | Previous Version | Text Only | Print | Product List | Glossary Off
Versions: 1 2 3 4 5 6 7 8 9 10 11 12 13 14 15 16 17 18 19 20 21 22 23 24 25 26 27 28 29 30 31 32 33 34 35 36 37 38 39 40 41 42 43 44 45 46 47 48 49 50

199
ASUS43 KOAX 271010
RWRNE

WEATHER ROUNDUP FOR NEBRASKA
NATIONAL WEATHER SERVICE OMAHA NE
500 AM CDT FRI MAY 27 2016

NOTES: SATELLITE DATA IS BEING USED TO AUGMENT CLOUD COVER ABOVE
       12000 FEET.
       "FAIR" INDICATES FEW OR NO CLOUDS BELOW 12,000 FEET WITH NO
       SIGNIFICANT WEATHER AND/OR OBSTRUCTIONS TO VISIBILITY.

  * THESE STATIONS DO NOT REPORT WEATHER SUCH AS RAIN...SNOW OR FOG.

NEZ001>004-019>022-054>056-271100-
NEBRASKA PANHANDLE

CITY           SKY/WX    TMP DP  RH WIND       PRES   REMARKS
SCOTTSBLUFF    CLOUDY    51  45  79 NW13      29.82F
ALLIANCE       CLOUDY    51  49  92 N13       29.81S
CHADRON        MOCLDY    46  44  93 CALM      29.84S
KIMBALL        CLOUDY    48  43  82 NW16      29.82S
SIDNEY         LGT RAIN  50  47  89 N8        29.80F FOG
$$

NEZ057>060-069>072-079>082-271100-
SOUTHWEST NEBRASKA

CITY           SKY/WX    TMP DP  RH WIND       PRES   REMARKS
NORTH PLATTE   CLOUDY    56  54  93 E7        29.74F
IMPERIAL       CLOUDY    53  50  89 CALM      29.73F
LEXINGTON      CLOUDY    57  55  91 S8        29.73S
MCCOOK         CLOUDY    55  53  93 N6        29.72S
OGALLALA       CLOUDY    55  50  82 NE5       29.75F
$$

NEZ005>010-023>029-035>040-094-271100-
NORTH CENTRAL NEBRASKA

CITY           SKY/WX    TMP DP  RH WIND       PRES   REMARKS
VALENTINE      CLOUDY    55  51  86 W9        29.74F
AINSWORTH      MOCLDY    55  53  94 N5        29.73F
BROKEN BOW     MOCLDY    57  54  89 NW3       29.74F
O`NEILL        CLOUDY    59  57  94 CALM      29.72F
ORD            CLOUDY    58  56  93 W3        29.72F
THEDFORD       LGT RAIN  55  53  94 E6        29.77F
$$

NEZ041-046>049-061>064-073>077-083>087-271100-
SOUTH CENTRAL NEBRASKA

CITY           SKY/WX    TMP DP  RH WIND       PRES   REMARKS
GRAND ISLAND   CLOUDY    59  56  89 CALM      29.72R
AURORA         CLOUDY    59  57  92 SE7       29.70F
HASTINGS       CLOUDY    57  56  96 S7        29.68F
HEBRON         CLOUDY    59  57  92 S8        29.67F
HOLDREGE       CLEAR     55  54  94 S3        29.70S
KEARNEY *      CLOUDY    57  54  88 S8        29.71S
YORK           MOCLDY    59  55  88 SE3       29.70F
$$

NEZ011>018-030>034-042>045-271100-
NORTHEAST NEBRASKA

CITY           SKY/WX    TMP DP  RH WIND       PRES   REMARKS
NORFOLK        CLOUDY    59  56  89 NE7       29.69F
ALBION         CLOUDY    60  56  88 S10G20    29.72R
BLAIR          CLOUDY    61  59  93 SE6       29.69F
FREMONT        CLOUDY    60  59  94 E5        29.67F
TEKAMAH        CLOUDY    62  58  86 E8        29.72F
WAYNE          CLOUDY    61  58  90 E7        29.73F
$$

NEZ050>053-065>068-078-088>093-271100-
SOUTHEAST NEBRASKA

CITY           SKY/WX    TMP DP  RH WIND       PRES   REMARKS
LINCOLN        CLOUDY    61  58  90 S5        29.68F
OMAHA EPPLEY   CLOUDY    63  58  83 E10       29.69F
BEATRICE       CLOUDY    60  57  89 S6        29.66R
FALLS CITY     CLOUDY    61  60  97 E9        29.69F
NEBRASKA CITY  CLOUDY    61  61 100 S12G20    29.67F
PLATTSMOUTH    MOCLDY    62  61  98 SE7       29.67F
$$

NEZ044-045-051>053-067-271100-
OMAHA AREA

CITY           SKY/WX    TMP DP  RH WIND       PRES   REMARKS
OMAHA EPPLEY   CLOUDY    63  58  83 E10       29.69F
BLAIR          CLOUDY    61  59  93 SE6       29.69F
FREMONT        CLOUDY    60  59  94 E5        29.67F
MILLARD        CLOUDY    62  59  91 E6        29.66F
OFFUTT AFB     MOCLDY    61  60  97 E7        29.66F
PLATTSMOUTH    MOCLDY    62  61  98 SE7       29.67F
WAHOO          FAIR      61  59  94 E6        29.68F
$$




USA.gov is the U.S. government's official web portal to all federal, state and local government web resources and services.